History Data

Date (GMT-7:00) CPM ACPM uSv/h Latitude Longitude Altitude CO CO2 TVOC HCHO Air Pressure Temperature Humidity Type
2025-11-19 11:59:29 23 20.90 0.115000 41.649648 41.62752893 0 0 0 0 0 0 0 0 STD5.60
2025-11-19 11:54:27 24 19.30 0.120000 41.649648 41.62752893 0 0 0 0 0 0 0 0 STD5.60
2025-11-19 11:49:25 28 16.40 0.140000 41.649648 41.62752893 0 0 0 0 0 0 0 0 STD5.60
2025-11-19 11:44:19 13 15.40 0.065000 41.649648 41.62752893 0 0 0 0 0 0 0 0 STD5.60
2025-11-19 11:39:18 13 16.70 0.065000 41.649648 41.62752893 0 0 0 0 0 0 0 0 STD5.60
2025-11-19 11:34:15 15 17.20 0.075000 41.649648 41.62752893 0 0 0 0 0 0 0 0 STD5.60
2025-11-19 11:29:13 20 17.00 0.100000 41.649648 41.62752893 0 0 0 0 0 0 0 0 STD5.60
2025-11-19 11:24:11 21 15.80 0.105000 41.649648 41.62752893 0 0 0 0 0 0 0 0 STD5.60
2025-11-19 11:19:08 14 14.80 0.070000 41.649648 41.62752893 0 0 0 0 0 0 0 0 STD5.60
2025-11-19 11:14:07 20 17.30 0.100000 41.649648 41.62752893 0 0 0 0 0 0 0 0 STD5.60
2025-11-19 11:09:04 21 18.30 0.105000 41.649648 41.62752893 0 0 0 0 0 0 0 0 STD5.60
2025-11-19 11:04:02 18 16.20 0.090000 41.649648 41.62752893 0 0 0 0 0 0 0 0 STD5.60
2025-11-19 10:58:59 22 17.50 0.110000 41.649648 41.62752893 0 0 0 0 0 0 0 0 STD5.60
2025-11-19 10:53:57 25 18.50 0.125000 41.649648 41.62752893 0 0 0 0 0 0 0 0 STD5.60
2025-11-19 10:48:55 17 17.30 0.085000 41.649648 41.62752893 0 0 0 0 0 0 0 0 STD5.60
2025-11-19 10:43:51 19 18.20 0.095000 41.649648 41.62752893 0 0 0 0 0 0 0 0 STD5.60
2025-11-19 10:38:49 13 19.10 0.065000 41.649648 41.62752893 0 0 0 0 0 0 0 0 STD5.60
2025-11-19 10:33:47 19 16.90 0.095000 41.649648 41.62752893 0 0 0 0 0 0 0 0 STD5.60
2025-11-19 10:28:45 18 15.40 0.090000 41.649648 41.62752893 0 0 0 0 0 0 0 0 STD5.60
2025-11-19 10:23:42 13 16.60 0.065000 41.649648 41.62752893 0 0 0 0 0 0 0 0 STD5.60
2025-11-19 10:18:40 19 18.10 0.095000 41.649648 41.62752893 0 0 0 0 0 0 0 0 STD5.60
2025-11-19 10:13:38 24 18.40 0.120000 41.649648 41.62752893 0 0 0 0 0 0 0 0 STD5.60
2025-11-19 10:08:36 19 18.30 0.095000 41.649648 41.62752893 0 0 0 0 0 0 0 0 STD5.60
2025-11-19 10:03:34 18 18.00 0.090000 41.649648 41.62752893 0 0 0 0 0 0 0 0 STD5.60
2025-11-19 09:58:31 15 15.60 0.075000 41.649648 41.62752893 0 0 0 0 0 0 0 0 STD5.60
2025-11-19 09:53:30 8 17.70 0.040000 41.649648 41.62752893 0 0 0 0 0 0 0 0 STD5.60
2025-11-19 09:48:27 23 19.70 0.115000 41.649648 41.62752893 0 0 0 0 0 0 0 0 STD5.60
2025-11-19 09:43:22 19 18.90 0.095000 41.649648 41.62752893 0 0 0 0 0 0 0 0 STD5.60
2025-11-19 09:38:20 19 19.30 0.095000 41.649648 41.62752893 0 0 0 0 0 0 0 0 STD5.60
2025-11-19 09:33:18 19 18.50 0.095000 41.649648 41.62752893 0 0 0 0 0 0 0 0 STD5.60
2025-11-19 09:28:15 21 18.40 0.105000 41.649648 41.62752893 0 0 0 0 0 0 0 0 STD5.60
2025-11-19 09:23:13 10 17.70 0.050000 41.649648 41.62752893 0 0 0 0 0 0 0 0 STD5.60
2025-11-19 09:18:11 16 17.10 0.080000 41.649648 41.62752893 0 0 0 0 0 0 0 0 STD5.60
2025-11-19 09:13:09 19 17.00 0.095000 41.649648 41.62752893 0 0 0 0 0 0 0 0 STD5.60
2025-11-19 09:08:07 16 18.10 0.080000 41.649648 41.62752893 0 0 0 0 0 0 0 0 STD5.60
2025-11-19 09:03:05 14 17.10 0.070000 41.649648 41.62752893 0 0 0 0 0 0 0 0 STD5.60
2025-11-19 08:58:03 11 16.50 0.055000 41.649648 41.62752893 0 0 0 0 0 0 0 0 STD5.60
2025-11-19 08:53:01 18 18.10 0.090000 41.649648 41.62752893 0 0 0 0 0 0 0 0 STD5.60
2025-11-19 08:47:58 18 20.60 0.090000 41.649648 41.62752893 0 0 0 0 0 0 0 0 STD5.60
2025-11-19 08:42:55 19 20.80 0.095000 41.649648 41.62752893 0 0 0 0 0 0 0 0 STD5.60
2025-11-19 08:37:52 19 18.30 0.095000 41.649648 41.62752893 0 0 0 0 0 0 0 0 STD5.60
2025-11-19 08:32:50 20 15.70 0.100000 41.649648 41.62752893 0 0 0 0 0 0 0 0 STD5.60
2025-11-19 08:27:48 12 17.40 0.060000 41.649648 41.62752893 0 0 0 0 0 0 0 0 STD5.60
2025-11-19 08:22:46 19 19.20 0.095000 41.649648 41.62752893 0 0 0 0 0 0 0 0 STD5.60
2025-11-19 08:17:44 17 16.10 0.085000 41.649648 41.62752893 0 0 0 0 0 0 0 0 STD5.60
2025-11-19 08:12:42 13 17.20 0.065000 41.649648 41.62752893 0 0 0 0 0 0 0 0 STD5.60
2025-11-19 08:07:40 13 20.10 0.065000 41.649648 41.62752893 0 0 0 0 0 0 0 0 STD5.60
2025-11-19 08:02:37 24 21.30 0.120000 41.649648 41.62752893 0 0 0 0 0 0 0 0 STD5.60
2025-11-19 07:57:35 18 20.50 0.090000 41.649648 41.62752893 0 0 0 0 0 0 0 0 STD5.60
2025-11-19 07:52:33 19 18.00 0.095000 41.649648 41.62752893 0 0 0 0 0 0 0 0 STD5.60
2025-11-19 07:47:30 13 17.30 0.065000 41.649648 41.62752893 0 0 0 0 0 0 0 0 STD5.60
2025-11-19 07:42:26 17 18.70 0.085000 41.649648 41.62752893 0 0 0 0 0 0 0 0 STD5.60
2025-11-19 07:37:25 22 19.00 0.110000 41.649648 41.62752893 0 0 0 0 0 0 0 0 STD5.60
2025-11-19 07:32:22 23 17.90 0.115000 41.649648 41.62752893 0 0 0 0 0 0 0 0 STD5.60
2025-11-19 07:27:20 13 18.70 0.065000 41.649648 41.62752893 0 0 0 0 0 0 0 0 STD5.60
2025-11-19 07:22:18 25 19.70 0.125000 41.649648 41.62752893 0 0 0 0 0 0 0 0 STD5.60
2025-11-19 07:17:15 25 19.40 0.125000 41.649648 41.62752893 0 0 0 0 0 0 0 0 STD5.60
2025-11-19 07:12:13 19 18.50 0.095000 41.649648 41.62752893 0 0 0 0 0 0 0 0 STD5.60
2025-11-19 07:07:11 18 17.60 0.090000 41.649648 41.62752893 0 0 0 0 0 0 0 0 STD5.60
2025-11-19 07:02:09 19 16.60 0.095000 41.649648 41.62752893 0 0 0 0 0 0 0 0 STD5.60
2025-11-19 06:57:07 20 15.50 0.100000 41.649648 41.62752893 0 0 0 0 0 0 0 0 STD5.60
2025-11-19 06:52:05 21 15.60 0.105000 41.649648 41.62752893 0 0 0 0 0 0 0 0 STD5.60
2025-11-19 06:47:02 19 17.20 0.095000 41.649648 41.62752893 0 0 0 0 0 0 0 0 STD5.60
2025-11-19 06:41:58 19 17.60 0.095000 41.649648 41.62752893 0 0 0 0 0 0 0 0 STD5.60
2025-11-19 06:36:56 23 16.20 0.115000 41.649648 41.62752893 0 0 0 0 0 0 0 0 STD5.60
2025-11-19 06:31:54 16 15.80 0.080000 41.649648 41.62752893 0 0 0 0 0 0 0 0 STD5.60
2025-11-19 06:26:52 16 16.40 0.080000 41.649648 41.62752893 0 0 0 0 0 0 0 0 STD5.60
2025-11-19 06:21:49 14 17.30 0.070000 41.649648 41.62752893 0 0 0 0 0 0 0 0 STD5.60
2025-11-19 06:16:47 20 17.30 0.100000 41.649648 41.62752893 0 0 0 0 0 0 0 0 STD5.60
2025-11-19 06:11:45 18 16.10 0.090000 41.649648 41.62752893 0 0 0 0 0 0 0 0 STD5.60
2025-11-19 06:06:42 14 17.40 0.070000 41.649648 41.62752893 0 0 0 0 0 0 0 0 STD5.60
2025-11-19 06:01:40 16 18.50 0.080000 41.649648 41.62752893 0 0 0 0 0 0 0 0 STD5.60
2025-11-19 05:56:38 19 17.70 0.095000 41.649648 41.62752893 0 0 0 0 0 0 0 0 STD5.60
2025-11-19 05:51:37 19 18.50 0.095000 41.649648 41.62752893 0 0 0 0 0 0 0 0 STD5.60
2025-11-19 05:46:34 21 18.50 0.105000 41.649648 41.62752893 0 0 0 0 0 0 0 0 STD5.60
2025-11-19 05:41:31 20 19.30 0.100000 41.649648 41.62752893 0 0 0 0 0 0 0 0 STD5.60
2025-11-19 05:36:28 15 18.00 0.075000 41.649648 41.62752893 0 0 0 0 0 0 0 0 STD5.60
2025-11-19 05:31:26 17 15.90 0.085000 41.649648 41.62752893 0 0 0 0 0 0 0 0 STD5.60
2025-11-19 05:26:24 17 18.50 0.085000 41.649648 41.62752893 0 0 0 0 0 0 0 0 STD5.60
2025-11-19 05:21:23 20 19.80 0.100000 41.649648 41.62752893 0 0 0 0 0 0 0 0 STD5.60
2025-11-19 05:16:20 33 17.40 0.165000 41.649648 41.62752893 0 0 0 0 0 0 0 0 STD5.60
2025-11-19 05:11:18 13 18.50 0.065000 41.649648 41.62752893 0 0 0 0 0 0 0 0 STD5.60
2025-11-19 05:06:15 17 20.60 0.085000 41.649648 41.62752893 0 0 0 0 0 0 0 0 STD5.60
2025-11-19 05:01:13 19 19.30 0.095000 41.649648 41.62752893 0 0 0 0 0 0 0 0 STD5.60
2025-11-19 04:56:11 17 18.10 0.085000 41.649648 41.62752893 0 0 0 0 0 0 0 0 STD5.60
2025-11-19 04:51:10 22 17.20 0.110000 41.649648 41.62752893 0 0 0 0 0 0 0 0 STD5.60
2025-11-19 04:46:06 20 18.10 0.100000 41.649648 41.62752893 0 0 0 0 0 0 0 0 STD5.60
2025-11-19 04:41:04 16 17.60 0.080000 41.649648 41.62752893 0 0 0 0 0 0 0 0 STD5.60
2025-11-19 04:36:00 23 16.90 0.115000 41.649648 41.62752893 0 0 0 0 0 0 0 0 STD5.60
2025-11-19 04:30:59 22 17.50 0.110000 41.649648 41.62752893 0 0 0 0 0 0 0 0 STD5.60
2025-11-19 04:25:56 18 18.70 0.090000 41.649648 41.62752893 0 0 0 0 0 0 0 0 STD5.60
2025-11-19 04:20:54 13 18.50 0.065000 41.649648 41.62752893 0 0 0 0 0 0 0 0 STD5.60
2025-11-19 04:15:52 16 19.20 0.080000 41.649648 41.62752893 0 0 0 0 0 0 0 0 STD5.60
2025-11-19 04:10:50 22 20.00 0.110000 41.649648 41.62752893 0 0 0 0 0 0 0 0 STD5.60
2025-11-19 04:05:47 10 18.80 0.050000 41.649648 41.62752893 0 0 0 0 0 0 0 0 STD5.60
2025-11-19 04:00:45 17 18.10 0.085000 41.649648 41.62752893 0 0 0 0 0 0 0 0 STD5.60
2025-11-19 03:55:43 21 17.70 0.105000 41.649648 41.62752893 0 0 0 0 0 0 0 0 STD5.60
2025-11-19 03:50:41 20 18.70 0.100000 41.649648 41.62752893 0 0 0 0 0 0 0 0 STD5.60
2025-11-19 03:45:39 20 19.00 0.100000 41.649648 41.62752893 0 0 0 0 0 0 0 0 STD5.60
2025-11-19 03:40:35 12 20.40 0.060000 41.649648 41.62752893 0 0 0 0 0 0 0 0 STD5.60
2025-11-19 03:35:33 25 19.70 0.125000 41.649648 41.62752893 0 0 0 0 0 0 0 0 STD5.60
2025-11-19 03:30:31 19 17.40 0.095000 41.649648 41.62752893 0 0 0 0 0 0 0 0 STD5.60
2025-11-19 03:25:28 19 16.70 0.095000 41.649648 41.62752893 0 0 0 0 0 0 0 0 STD5.60
2025-11-19 03:20:27 15 19.60 0.075000 41.649648 41.62752893 0 0 0 0 0 0 0 0 STD5.60
2025-11-19 03:15:25 23 21.00 0.115000 41.649648 41.62752893 0 0 0 0 0 0 0 0 STD5.60
2025-11-19 03:10:22 16 17.50 0.080000 41.649648 41.62752893 0 0 0 0 0 0 0 0 STD5.60
2025-11-19 03:05:20 11 16.30 0.055000 41.649648 41.62752893 0 0 0 0 0 0 0 0 STD5.60
2025-11-19 03:00:18 18 17.30 0.090000 41.649648 41.62752893 0 0 0 0 0 0 0 0 STD5.60
2025-11-19 02:55:16 17 17.90 0.085000 41.649648 41.62752893 0 0 0 0 0 0 0 0 STD5.60
2025-11-19 02:50:13 17 16.90 0.085000 41.649648 41.62752893 0 0 0 0 0 0 0 0 STD5.60
2025-11-19 02:45:11 17 18.50 0.085000 41.649648 41.62752893 0 0 0 0 0 0 0 0 STD5.60
2025-11-19 02:40:06 19 19.50 0.095000 41.649648 41.62752893 0 0 0 0 0 0 0 0 STD5.60
2025-11-19 02:35:04 22 17.40 0.110000 41.649648 41.62752893 0 0 0 0 0 0 0 0 STD5.60
2025-11-19 02:30:04 17 17.60 0.085000 41.649648 41.62752893 0 0 0 0 0 0 0 0 STD5.60
2025-11-19 02:25:00 19 19.60 0.095000 41.649648 41.62752893 0 0 0 0 0 0 0 0 STD5.60
2025-11-19 02:19:57 22 17.80 0.110000 41.649648 41.62752893 0 0 0 0 0 0 0 0 STD5.60
2025-11-19 02:14:55 6 15.80 0.030000 41.649648 41.62752893 0 0 0 0 0 0 0 0 STD5.60
2025-11-19 02:09:53 15 16.30 0.075000 41.649648 41.62752893 0 0 0 0 0 0 0 0 STD5.60
2025-11-19 02:04:51 17 17.10 0.085000 41.649648 41.62752893 0 0 0 0 0 0 0 0 STD5.60
2025-11-19 01:59:49 20 17.40 0.100000 41.649648 41.62752893 0 0 0 0 0 0 0 0 STD5.60
2025-11-19 01:54:47 12 16.40 0.060000 41.649648 41.62752893 0 0 0 0 0 0 0 0 STD5.60
2025-11-19 01:49:45 18 17.00 0.090000 41.649648 41.62752893 0 0 0 0 0 0 0 0 STD5.60
2025-11-19 01:44:44 17 17.90 0.085000 41.649648 41.62752893 0 0 0 0 0 0 0 0 STD5.60
2025-11-19 01:39:39 21 19.10 0.105000 41.649648 41.62752893 0 0 0 0 0 0 0 0 STD5.60
2025-11-19 01:34:37 21 18.90 0.105000 41.649648 41.62752893 0 0 0 0 0 0 0 0 STD5.60
2025-11-19 01:29:35 21 17.40 0.105000 41.649648 41.62752893 0 0 0 0 0 0 0 0 STD5.60
2025-11-19 01:24:33 16 16.60 0.080000 41.649648 41.62752893 0 0 0 0 0 0 0 0 STD5.60
2025-11-19 01:19:31 17 17.80 0.085000 41.649648 41.62752893 0 0 0 0 0 0 0 0 STD5.60
2025-11-19 01:14:28 21 19.30 0.105000 41.649648 41.62752893 0 0 0 0 0 0 0 0 STD5.60
2025-11-19 01:09:26 18 17.90 0.090000 41.649648 41.62752893 0 0 0 0 0 0 0 0 STD5.60
2025-11-19 01:04:24 14 17.30 0.070000 41.649648 41.62752893 0 0 0 0 0 0 0 0 STD5.60
2025-11-19 00:59:22 17 18.60 0.085000 41.649648 41.62752893 0 0 0 0 0 0 0 0 STD5.60
2025-11-19 00:54:20 24 18.60 0.120000 41.649648 41.62752893 0 0 0 0 0 0 0 0 STD5.60
2025-11-19 00:49:18 15 19.10 0.075000 41.649648 41.62752893 0 0 0 0 0 0 0 0 STD5.60
2025-11-19 00:44:15 28 18.10 0.140000 41.649648 41.62752893 0 0 0 0 0 0 0 0 STD5.60
2025-11-19 00:39:10 11 16.10 0.055000 41.649648 41.62752893 0 0 0 0 0 0 0 0 STD5.60
2025-11-19 00:34:08 15 15.90 0.075000 41.649648 41.62752893 0 0 0 0 0 0 0 0 STD5.60
2025-11-19 00:29:06 19 16.30 0.095000 41.649648 41.62752893 0 0 0 0 0 0 0 0 STD5.60
2025-11-19 00:24:03 22 17.30 0.110000 41.649648 41.62752893 0 0 0 0 0 0 0 0 STD5.60
2025-11-19 00:19:01 23 17.70 0.115000 41.649648 41.62752893 0 0 0 0 0 0 0 0 STD5.60
2025-11-19 00:13:59 22 18.90 0.110000 41.649648 41.62752893 0 0 0 0 0 0 0 0 STD5.60
2025-11-19 00:08:57 26 17.90 0.130000 41.649648 41.62752893 0 0 0 0 0 0 0 0 STD5.60
2025-11-19 00:03:55 18 16.40 0.090000 41.649648 41.62752893 0 0 0 0 0 0 0 0 STD5.60
2025-11-18 23:58:53 17 17.20 0.085000 41.649648 41.62752893 0 0 0 0 0 0 0 0 STD5.60
2025-11-18 23:53:51 12 17.50 0.060000 41.649648 41.62752893 0 0 0 0 0 0 0 0 STD5.60
2025-11-18 23:48:49 15 16.40 0.075000 41.649648 41.62752893 0 0 0 0 0 0 0 0 STD5.60
2025-11-18 23:43:47 11 16.70 0.055000 41.649648 41.62752893 0 0 0 0 0 0 0 0 STD5.60
2025-11-18 23:38:43 13 19.10 0.065000 41.649648 41.62752893 0 0 0 0 0 0 0 0 STD5.60
2025-11-18 23:33:40 15 18.40 0.075000 41.649648 41.62752893 0 0 0 0 0 0 0 0 STD5.60
2025-11-18 23:28:38 14 16.80 0.070000 41.649648 41.62752893 0 0 0 0 0 0 0 0 STD5.60
2025-11-18 23:23:36 18 15.50 0.090000 41.649648 41.62752893 0 0 0 0 0 0 0 0 STD5.60
2025-11-18 23:18:34 15 16.10 0.075000 41.649648 41.62752893 0 0 0 0 0 0 0 0 STD5.60
2025-11-18 23:13:32 18 18.70 0.090000 41.649648 41.62752893 0 0 0 0 0 0 0 0 STD5.60
2025-11-18 23:08:30 24 18.40 0.120000 41.649648 41.62752893 0 0 0 0 0 0 0 0 STD5.60
2025-11-18 23:03:28 17 16.80 0.085000 41.649648 41.62752893 0 0 0 0 0 0 0 0 STD5.60
2025-11-18 22:58:26 17 17.70 0.085000 41.649648 41.62752893 0 0 0 0 0 0 0 0 STD5.60
2025-11-18 22:53:23 19 18.90 0.095000 41.649648 41.62752893 0 0 0 0 0 0 0 0 STD5.60
2025-11-18 22:48:21 19 17.30 0.095000 41.649648 41.62752893 0 0 0 0 0 0 0 0 STD5.60
2025-11-18 22:43:19 14 17.30 0.070000 41.649648 41.62752893 0 0 0 0 0 0 0 0 STD5.60
2025-11-18 22:38:14 16 19.70 0.080000 41.649648 41.62752893 0 0 0 0 0 0 0 0 STD5.60
2025-11-18 22:33:12 32 19.50 0.160000 41.649648 41.62752893 0 0 0 0 0 0 0 0 STD5.60
2025-11-18 22:28:10 16 19.20 0.080000 41.649648 41.62752893 0 0 0 0 0 0 0 0 STD5.60
2025-11-18 22:23:08 16 19.40 0.080000 41.649648 41.62752893 0 0 0 0 0 0 0 0 STD5.60
2025-11-18 22:18:05 17 17.10 0.085000 41.649648 41.62752893 0 0 0 0 0 0 0 0 STD5.60
2025-11-18 22:13:03 12 17.20 0.060000 41.649648 41.62752893 0 0 0 0 0 0 0 0 STD5.60
2025-11-18 22:08:01 22 17.40 0.110000 41.649648 41.62752893 0 0 0 0 0 0 0 0 STD5.60
2025-11-18 22:02:58 13 18.00 0.065000 41.649648 41.62752893 0 0 0 0 0 0 0 0 STD5.60
2025-11-18 21:57:57 17 20.10 0.085000 41.649648 41.62752893 0 0 0 0 0 0 0 0 STD5.60
2025-11-18 21:52:54 18 18.00 0.090000 41.649648 41.62752893 0 0 0 0 0 0 0 0 STD5.60
2025-11-18 21:47:52 17 16.50 0.085000 41.649648 41.62752893 0 0 0 0 0 0 0 0 STD5.60
2025-11-18 21:42:50 15 17.40 0.075000 41.649648 41.62752893 0 0 0 0 0 0 0 0 STD5.60
2025-11-18 21:37:46 17 16.10 0.085000 41.649648 41.62752893 0 0 0 0 0 0 0 0 STD5.60
2025-11-18 21:32:44 15 16.90 0.075000 41.649648 41.62752893 0 0 0 0 0 0 0 0 STD5.60
2025-11-18 21:27:42 22 17.70 0.110000 41.649648 41.62752893 0 0 0 0 0 0 0 0 STD5.60
2025-11-18 21:22:40 16 17.20 0.080000 41.649648 41.62752893 0 0 0 0 0 0 0 0 STD5.60
2025-11-18 21:17:38 22 18.80 0.110000 41.649648 41.62752893 0 0 0 0 0 0 0 0 STD5.60
2025-11-18 21:12:36 18 19.30 0.090000 41.649648 41.62752893 0 0 0 0 0 0 0 0 STD5.60
2025-11-18 21:07:33 15 18.80 0.075000 41.649648 41.62752893 0 0 0 0 0 0 0 0 STD5.60
2025-11-18 21:02:31 11 20.30 0.055000 41.649648 41.62752893 0 0 0 0 0 0 0 0 STD5.60
2025-11-18 20:57:29 35 22.20 0.175000 41.649648 41.62752893 0 0 0 0 0 0 0 0 STD5.60
2025-11-18 20:52:27 24 20.40 0.120000 41.649648 41.62752893 0 0 0 0 0 0 0 0 STD5.60
2025-11-18 20:47:26 14 16.90 0.070000 41.649648 41.62752893 0 0 0 0 0 0 0 0 STD5.60
2025-11-18 20:42:23 12 17.10 0.060000 41.649648 41.62752893 0 0 0 0 0 0 0 0 STD5.60
2025-11-18 20:37:19 19 19.40 0.095000 41.649648 41.62752893 0 0 0 0 0 0 0 0 STD5.60
2025-11-18 20:32:17 16 19.20 0.080000 41.649648 41.62752893 0 0 0 0 0 0 0 0 STD5.60
2025-11-18 20:27:15 16 18.20 0.080000 41.649648 41.62752893 0 0 0 0 0 0 0 0 STD5.60
2025-11-18 20:22:13 15 17.40 0.075000 41.649648 41.62752893 0 0 0 0 0 0 0 0 STD5.60
2025-11-18 20:17:11 12 18.30 0.060000 41.649648 41.62752893 0 0 0 0 0 0 0 0 STD5.60
2025-11-18 20:12:08 21 18.20 0.105000 41.649648 41.62752893 0 0 0 0 0 0 0 0 STD5.60
2025-11-18 20:07:07 18 17.80 0.090000 41.649648 41.62752893 0 0 0 0 0 0 0 0 STD5.60
2025-11-18 20:02:04 19 18.60 0.095000 41.649648 41.62752893 0 0 0 0 0 0 0 0 STD5.60
2025-11-18 19:57:03 18 20.30 0.090000 41.649648 41.62752893 0 0 0 0 0 0 0 0 STD5.60
2025-11-18 19:52:00 20 19.20 0.100000 41.649648 41.62752893 0 0 0 0 0 0 0 0 STD5.60
2025-11-18 19:46:58 19 16.00 0.095000 41.649648 41.62752893 0 0 0 0 0 0 0 0 STD5.60
2025-11-18 19:41:55 21 16.80 0.105000 41.649648 41.62752893 0 0 0 0 0 0 0 0 STD5.60
2025-11-18 19:36:52 16 17.60 0.080000 41.649648 41.62752893 0 0 0 0 0 0 0 0 STD5.60
2025-11-18 19:31:49 20 17.70 0.100000 41.649648 41.62752893 0 0 0 0 0 0 0 0 STD5.60
2025-11-18 19:26:47 23 17.60 0.115000 41.649648 41.62752893 0 0 0 0 0 0 0 0 STD5.60
2025-11-18 19:21:45 17 19.10 0.085000 41.649648 41.62752893 0 0 0 0 0 0 0 0 STD5.60
2025-11-18 19:16:43 19 21.20 0.095000 41.649648 41.62752893 0 0 0 0 0 0 0 0 STD5.60
2025-11-18 19:11:40 19 20.00 0.095000 41.649648 41.62752893 0 0 0 0 0 0 0 0 STD5.60
2025-11-18 19:06:38 19 17.30 0.095000 41.649648 41.62752893 0 0 0 0 0 0 0 0 STD5.60
2025-11-18 19:01:36 12 17.60 0.060000 41.649648 41.62752893 0 0 0 0 0 0 0 0 STD5.60
2025-11-18 18:56:34 18 17.80 0.090000 41.649648 41.62752893 0 0 0 0 0 0 0 0 STD5.60
2025-11-18 18:51:32 10 18.40 0.050000 41.649648 41.62752893 0 0 0 0 0 0 0 0 STD5.60
2025-11-18 18:46:30 22 16.90 0.110000 41.649648 41.62752893 0 0 0 0 0 0 0 0 STD5.60
2025-11-18 18:41:27 17 14.60 0.085000 41.649648 41.62752893 0 0 0 0 0 0 0 0 STD5.60
2025-11-18 18:36:24 16 16.70 0.080000 41.649648 41.62752893 0 0 0 0 0 0 0 0 STD5.60
2025-11-18 18:31:22 18 19.50 0.090000 41.649648 41.62752893 0 0 0 0 0 0 0 0 STD5.60
2025-11-18 18:26:20 24 18.90 0.120000 41.649648 41.62752893 0 0 0 0 0 0 0 0 STD5.60
2025-11-18 18:21:18 13 18.80 0.065000 41.649648 41.62752893 0 0 0 0 0 0 0 0 STD5.60
2025-11-18 18:16:15 18 19.50 0.090000 41.649648 41.62752893 0 0 0 0 0 0 0 0 STD5.60
2025-11-18 18:11:13 19 19.50 0.095000 41.649648 41.62752893 0 0 0 0 0 0 0 0 STD5.60
2025-11-18 18:06:11 22 17.30 0.110000 41.649648 41.62752893 0 0 0 0 0 0 0 0 STD5.60
2025-11-18 18:01:09 13 16.00 0.065000 41.649648 41.62752893 0 0 0 0 0 0 0 0 STD5.60
2025-11-18 17:56:07 23 17.40 0.115000 41.649648 41.62752893 0 0 0 0 0 0 0 0 STD5.60
2025-11-18 17:51:05 21 17.90 0.105000 41.649648 41.62752893 0 0 0 0 0 0 0 0 STD5.60
2025-11-18 17:46:03 17 17.90 0.085000 41.649648 41.62752893 0 0 0 0 0 0 0 0 STD5.60
2025-11-18 17:41:01 12 18.10 0.060000 41.649648 41.62752893 0 0 0 0 0 0 0 0 STD5.60
2025-11-18 17:35:59 24 18.80 0.120000 41.649648 41.62752893 0 0 0 0 0 0 0 0 STD5.60
2025-11-18 17:30:54 15 18.80 0.075000 41.649648 41.62752893 0 0 0 0 0 0 0 0 STD5.60
2025-11-18 17:25:51 22 17.90 0.110000 41.649648 41.62752893 0 0 0 0 0 0 0 0 STD5.60
2025-11-18 17:20:50 18 15.90 0.090000 41.649648 41.62752893 0 0 0 0 0 0 0 0 STD5.60
2025-11-18 17:15:48 13 15.20 0.065000 41.649648 41.62752893 0 0 0 0 0 0 0 0 STD5.60
2025-11-18 17:10:45 14 15.60 0.070000 41.649648 41.62752893 0 0 0 0 0 0 0 0 STD5.60
2025-11-18 17:05:43 15 16.60 0.075000 41.649648 41.62752893 0 0 0 0 0 0 0 0 STD5.60
2025-11-18 17:00:41 20 18.80 0.100000 41.649648 41.62752893 0 0 0 0 0 0 0 0 STD5.60
2025-11-18 16:55:39 12 19.00 0.060000 41.649648 41.62752893 0 0 0 0 0 0 0 0 STD5.60
2025-11-18 16:50:37 19 18.70 0.095000 41.649648 41.62752893 0 0 0 0 0 0 0 0 STD5.60
2025-11-18 16:45:35 17 19.20 0.085000 41.649648 41.62752893 0 0 0 0 0 0 0 0 STD5.60
2025-11-18 16:40:33 15 16.50 0.075000 41.649648 41.62752893 0 0 0 0 0 0 0 0 STD5.60
2025-11-18 16:35:28 19 16.00 0.095000 41.649648 41.62752893 0 0 0 0 0 0 0 0 STD5.60
2025-11-18 16:30:26 16 16.90 0.080000 41.649648 41.62752893 0 0 0 0 0 0 0 0 STD5.60
2025-11-18 16:25:24 14 17.80 0.070000 41.649648 41.62752893 0 0 0 0 0 0 0 0 STD5.60
2025-11-18 16:20:22 17 16.90 0.085000 41.649648 41.62752893 0 0 0 0 0 0 0 0 STD5.60
2025-11-18 16:15:20 16 16.50 0.080000 41.649648 41.62752893 0 0 0 0 0 0 0 0 STD5.60
2025-11-18 16:10:17 14 17.10 0.070000 41.649648 41.62752893 0 0 0 0 0 0 0 0 STD5.60
2025-11-18 16:05:15 16 16.80 0.080000 41.649648 41.62752893 0 0 0 0 0 0 0 0 STD5.60
2025-11-18 16:00:13 21 17.40 0.105000 41.649648 41.62752893 0 0 0 0 0 0 0 0 STD5.60
2025-11-18 15:55:11 15 16.50 0.075000 41.649648 41.62752893 0 0 0 0 0 0 0 0 STD5.60
2025-11-18 15:50:09 15 16.20 0.075000 41.649648 41.62752893 0 0 0 0 0 0 0 0 STD5.60
2025-11-18 15:45:08 15 16.80 0.075000 41.649648 41.62752893 0 0 0 0 0 0 0 0 STD5.60
2025-11-18 15:40:05 17 18.30 0.085000 41.649648 41.62752893 0 0 0 0 0 0 0 0 STD5.60
2025-11-18 15:35:01 21 19.20 0.105000 41.649648 41.62752893 0 0 0 0 0 0 0 0 STD5.60
2025-11-18 15:30:00 17 17.90 0.085000 41.649648 41.62752893 0 0 0 0 0 0 0 0 STD5.60
2025-11-18 15:24:56 13 17.80 0.065000 41.649648 41.62752893 0 0 0 0 0 0 0 0 STD5.60
2025-11-18 15:19:54 14 18.50 0.070000 41.649648 41.62752893 0 0 0 0 0 0 0 0 STD5.60
2025-11-18 15:14:52 24 17.10 0.120000 41.649648 41.62752893 0 0 0 0 0 0 0 0 STD5.60
2025-11-18 15:09:50 20 18.90 0.100000 41.649648 41.62752893 0 0 0 0 0 0 0 0 STD5.60
2025-11-18 15:04:48 14 17.80 0.070000 41.649648 41.62752893 0 0 0 0 0 0 0 0 STD5.60
2025-11-18 14:59:45 12 16.50 0.060000 41.649648 41.62752893 0 0 0 0 0 0 0 0 STD5.60
2025-11-18 14:54:43 15 18.40 0.075000 41.649648 41.62752893 0 0 0 0 0 0 0 0 STD5.60
2025-11-18 14:49:41 18 17.00 0.090000 41.649648 41.62752893 0 0 0 0 0 0 0 0 STD5.60
2025-11-18 14:44:39 14 16.10 0.070000 41.649648 41.62752893 0 0 0 0 0 0 0 0 STD5.60
2025-11-18 14:39:37 17 17.30 0.085000 41.649648 41.62752893 0 0 0 0 0 0 0 0 STD5.60
2025-11-18 14:34:32 15 16.60 0.075000 41.649648 41.62752893 0 0 0 0 0 0 0 0 STD5.60
2025-11-18 14:29:30 14 16.60 0.070000 41.649648 41.62752893 0 0 0 0 0 0 0 0 STD5.60
2025-11-18 14:24:28 16 17.80 0.080000 41.649648 41.62752893 0 0 0 0 0 0 0 0 STD5.60
2025-11-18 14:19:26 16 16.60 0.080000 41.649648 41.62752893 0 0 0 0 0 0 0 0 STD5.60
2025-11-18 14:14:24 18 16.00 0.090000 41.649648 41.62752893 0 0 0 0 0 0 0 0 STD5.60
2025-11-18 14:09:22 13 15.90 0.065000 41.649648 41.62752893 0 0 0 0 0 0 0 0 STD5.60
2025-11-18 14:04:20 11 16.20 0.055000 41.649648 41.62752893 0 0 0 0 0 0 0 0 STD5.60
2025-11-18 13:59:17 13 18.00 0.065000 41.649648 41.62752893 0 0 0 0 0 0 0 0 STD5.60
2025-11-18 13:54:16 17 19.00 0.085000 41.649648 41.62752893 0 0 0 0 0 0 0 0 STD5.60
2025-11-18 13:49:13 20 19.70 0.100000 41.649648 41.62752893 0 0 0 0 0 0 0 0 STD5.60
2025-11-18 13:44:11 22 10.10 0.110000 41.649648 41.62752893 0 0 0 0 0 0 0 0 STD5.60
2025-11-18 13:34:53 18 19.40 0.090000 41.649648 41.62752893 0 0 0 0 0 0 0 0 STD5.60
2025-11-18 13:29:51 22 18.60 0.110000 41.649648 41.62752893 0 0 0 0 0 0 0 0 STD5.60
2025-11-18 13:24:49 22 17.10 0.110000 41.649648 41.62752893 0 0 0 0 0 0 0 0 STD5.60
2025-11-18 13:19:45 11 18.60 0.055000 41.649648 41.62752893 0 0 0 0 0 0 0 0 STD5.60
2025-11-18 13:14:43 25 18.30 0.125000 41.649648 41.62752893 0 0 0 0 0 0 0 0 STD5.60
2025-11-18 13:09:41 20 16.70 0.100000 41.649648 41.62752893 0 0 0 0 0 0 0 0 STD5.60
2025-11-18 13:04:39 21 15.80 0.105000 41.649648 41.62752893 0 0 0 0 0 0 0 0 STD5.60
2025-11-18 12:59:36 14 16.90 0.070000 41.649648 41.62752893 0 0 0 0 0 0 0 0 STD5.60
2025-11-18 12:54:34 20 18.80 0.100000 41.649648 41.62752893 0 0 0 0 0 0 0 0 STD5.60
2025-11-18 12:49:32 19 17.50 0.095000 41.649648 41.62752893 0 0 0 0 0 0 0 0 STD5.60
2025-11-18 12:44:30 15 17.40 0.075000 41.649648 41.62752893 0 0 0 0 0 0 0 0 STD5.60
2025-11-18 12:39:29 16 17.90 0.080000 41.649648 41.62752893 0 0 0 0 0 0 0 0 STD5.60
2025-11-18 12:34:25 19 19.10 0.095000 41.649648 41.62752893 0 0 0 0 0 0 0 0 STD5.60
2025-11-18 12:29:23 13 21.00 0.065000 41.649648 41.62752893 0 0 0 0 0 0 0 0 STD5.60
2025-11-18 12:24:22 20 19.20 0.100000 41.649648 41.62752893 0 0 0 0 0 0 0 0 STD5.60
2025-11-18 12:19:18 18 17.20 0.090000 41.649648 41.62752893 0 0 0 0 0 0 0 0 STD5.60
2025-11-18 12:14:16 11 17.70 0.055000 41.649648 41.62752893 0 0 0 0 0 0 0 0 STD5.60
2025-11-18 12:09:14 17 18.30 0.085000 41.649648 41.62752893 0 0 0 0 0 0 0 0 STD5.60
2025-11-18 12:04:11 18 18.20 0.090000 41.649648 41.62752893 0 0 0 0 0 0 0 0 STD5.60
2025-11-18 11:59:09 20 18.00 0.100000 41.649648 41.62752893 0 0 0 0 0 0 0 0 STD5.60
2025-11-18 11:54:06 15 19.30 0.075000 41.649648 41.62752893 0 0 0 0 0 0 0 0 STD5.60
2025-11-18 11:49:04 24 20.40 0.120000 41.649648 41.62752893 0 0 0 0 0 0 0 0 STD5.60
2025-11-18 11:44:03 26 19.50 0.130000 41.649648 41.62752893 0 0 0 0 0 0 0 0 STD5.60
2025-11-18 11:39:01 21 18.90 0.105000 41.649648 41.62752893 0 0 0 0 0 0 0 0 STD5.60
2025-11-18 11:33:58 15 19.50 0.075000 41.649648 41.62752893 0 0 0 0 0 0 0 0 STD5.60
2025-11-18 11:28:56 22 18.70 0.110000 41.649648 41.62752893 0 0 0 0 0 0 0 0 STD5.60
2025-11-18 11:23:54 15 16.70 0.075000 41.649648 41.62752893 0 0 0 0 0 0 0 0 STD5.60
2025-11-18 11:18:50 13 15.70 0.065000 41.649648 41.62752893 0 0 0 0 0 0 0 0 STD5.60
2025-11-18 11:13:48 14 17.80 0.070000 41.649648 41.62752893 0 0 0 0 0 0 0 0 STD5.60
2025-11-18 11:08:47 18 19.60 0.090000 41.649648 41.62752893 0 0 0 0 0 0 0 0 STD5.60
2025-11-18 11:03:45 16 20.70 0.080000 41.649648 41.62752893 0 0 0 0 0 0 0 0 STD5.60
2025-11-18 10:58:44 20 20.50 0.100000 41.649648 41.62752893 0 0 0 0 0 0 0 0 STD5.60
2025-11-18 10:53:42 29 18.90 0.145000 41.649648 41.62752893 0 0 0 0 0 0 0 0 STD5.60
2025-11-18 10:48:39 14 19.40 0.070000 41.649648 41.62752893 0 0 0 0 0 0 0 0 STD5.60
Geiger Counter World Map       A real time radiation map.     Copyright 2015 All rights reserved.